Fort Polk, LA

2:46 PM CDT on October 22, 2017 (GMT -0500)
Fort Polk

Weather History for KAQV - October, 2012

Change the Weather History Date:

Tuesday, October 9, 2012

  Actual Average (KPOE) Record (KPOE)
Temperature  
Mean Temperature 61 °F -  
Max Temperature 80 °F 77 °F 91 °F (2015)
Min Temperature 42 °F 58 °F 44 °F (2000)
Degree Days  
Heating Degree Days 4    
Growing Degree Days 11 (Base 50)    
Moisture  
Dew Point 52 °F    
Average Humidity 77    
Maximum Humidity 97    
Minimum Humidity 43    
Precipitation  
Precipitation 0.00 in - - ()
Sea Level Pressure  
Sea Level Pressure 30.06 in    
Wind  
Wind Speed 1 mph (SSE)    
Max Wind Speed 6 mph    
Max Gust Speed -    
Visibility 9 miles    
Events      
Averages and records for this station are not official NWS values.
T = Trace of Precipitation, MM = Missing Value Source: NWS Daily Summary

Daily Weather History Graph

Daily Weather History Graph

Search for Another Location

Airport or City:

Trip Planner

Search our weather history database for the weather conditions in past years. The results will help you decide how hot, cold, wet, or windy it might be!

Date:

Astronomy

Oct. 09, 2012 Rise Set
Actual Time 7:12 AM CDT 6:47 PM CDT
Civil Twilight 6:48 AM CDT 7:12 PM CDT
Nautical Twilight 6:19 AM CDT 7:40 PM CDT
Astronomical Twilight 5:51 AM CDT 8:08 PM CDT
Moon 1:11 AM CDT (10/9) 2:55 PM CDT (10/9)
Length of Visible Light 12h 23m
Length of Day
11h 35m
Last Quarter, 36% of the Moon is Illuminated
Oct 9
Last Quarter
Oct 15
New
Oct 21
First Quarter
Oct 29
Full
Nov 6
Last Quarter

Hourly Weather History & Observations

Time (CDT) Temp. Heat Index Dew Point Humidity Pressure Visibility Wind Dir Wind Speed Gust Speed Precip Events Conditions
12:56 AM 44.1 °F - 43.0 °F 96% 30.12 in 9.0 mi Calm Calm - N/A   Clear
1:56 AM 43.0 °F - 42.1 °F 97% 30.12 in 9.0 mi Calm Calm - N/A   Clear
2:56 AM 43.0 °F - 42.1 °F 97% 30.11 in 8.0 mi Calm Calm - N/A   Clear
3:56 AM 44.1 °F - 42.1 °F 93% 30.11 in 8.0 mi Calm Calm - N/A   Clear
4:56 AM 43.0 °F - 41.0 °F 93% 30.10 in 5.0 mi Calm Calm - N/A   Clear
5:56 AM 42.1 °F - 41.0 °F 96% 30.12 in 8.0 mi Calm Calm - N/A   Clear
6:56 AM 44.1 °F - 42.1 °F 93% 30.12 in 8.0 mi Calm Calm - N/A   Clear
7:56 AM 46.0 °F - 45.0 °F 96% 30.13 in 8.0 mi Calm Calm - N/A   Clear
8:56 AM 52.0 °F - 48.9 °F 89% 30.14 in 10.0 mi Calm Calm - N/A   Clear
9:56 AM 59.0 °F - 50.0 °F 72% 30.13 in 10.0 mi Variable 4.6 mph - N/A   Clear
10:56 AM 64.9 °F - 51.1 °F 61% 30.12 in 10.0 mi South 5.8 mph - N/A   Clear
11:56 AM 69.1 °F - 54.0 °F 58% 30.10 in 10.0 mi Calm Calm - N/A   Clear
12:56 PM 73.9 °F - 55.0 °F 52% 30.07 in 10.0 mi Variable 4.6 mph - N/A   Clear
1:56 PM 77.0 °F - 55.9 °F 48% 30.03 in 10.0 mi Variable 3.5 mph - N/A   Clear
2:56 PM 78.1 °F - 55.9 °F 46% 29.99 in 10.0 mi Variable 3.5 mph - N/A   Clear
3:56 PM 80.1 °F 80.2 °F 55.9 °F 43% 29.97 in 10.0 mi Calm Calm - N/A   Clear
4:56 PM 79.0 °F - 57.0 °F 47% 29.96 in 10.0 mi Variable 3.5 mph - N/A   Partly Cloudy
5:56 PM 77.0 °F - 57.9 °F 52% 29.95 in 10.0 mi Variable 3.5 mph - N/A   Clear
6:56 PM 69.1 °F - 61.0 °F 75% 29.96 in 10.0 mi Calm Calm - N/A   Partly Cloudy
7:56 PM 66.0 °F - 60.1 °F 81% 29.97 in 10.0 mi Calm Calm - N/A   Partly Cloudy
8:56 PM 64.9 °F - 60.1 °F 84% 29.99 in 8.0 mi Calm Calm - N/A   Clear
9:56 PM 64.9 °F - 60.1 °F 84% 30.01 in 10.0 mi SSE 3.5 mph - N/A   Clear
10:56 PM 62.1 °F - 60.1 °F 93% 30.02 in 10.0 mi Calm Calm - N/A   Clear
11:56 PM 64.0 °F - 61.0 °F 90% 30.03 in 10.0 mi Calm Calm - N/A   Mostly Cloudy